CZ-6A DEB, 60632

Orbit data source: Space-Track

CZ-6A DEB, 60632 is space debris in LEO originally from a launch on Tue, 06 Aug 2024 UTC launched from the Taiyaun Space Center, China (TSC). Debris objects in space refer to the collection of defunct objects orbiting the Earth. Examples of debris include non-operational satellites, rocket bodies, and fragments generated from explosions, collisions, or faulty payload assembly.

Loading next visibility...
Identifier
60632, 2024-140AH
Orbit
LEO
Country
Flag of CNCN / PRC
Related business
Manufacturer
SAST
Mission
Spacecraft
Bus & Motor
Unknown
Mass
Unknown
Launch date (UTC)
2024-08-06 (1 year ago)
Launch vehicle
Unknown
Launch site
Taiyaun Space Center, China (TSC)
Object type
Payload
Rocket body
Debris
Shape & HBR
Unknown shape, 0.3 m
Radar Cross Section
Medium (>0.1 m² and <1 m²)

Expand to show TLE details & history
Last TLE update: 20 hours ago

TLE from 20 hours ago
0 CZ-6A DEB
1 60632U 24140AH  25312.67099389  .00002783  00000-0  63939-3 0  9995
2 60632  89.0431 299.4990 0106471 311.6815  47.5316 14.51797009 66348
Epoch: 2025-11-08T16:06Z
TLE epoch observation values (Epoch: 2025-11-08T16:06:13.872Z)
Latitude
-0.00002°
Longitude
9.84394°
Altitude
672.291 km
Speed
7.547 km/s
True Right ascension
19h 57m 59s
True Declination
0° 00' 00"
Sunlit
Object was in daylight at epoch
Visualization orbit readout
Latitude
Unknown
Longitude
Unknown
Altitude
Unknown
Speed
Unknown
Apparent Right ascension
Unknown
Apparent Declination
Unknown
Sunlit
N/A
Visualization observer readout
Local Sidereal Time
08:50:04
Azimuth
Unknown
Elevation
Unknown
Doppler factor
Unknown
Orbital elements
Apogee altitude
792.23 km
Perigee altitude
641.151 km
Semi-major axis
7,094.827 km
Eccentricity
0.01065
Inclination
89.0431°
RAAN
299.499°
Arg. of periapsis
311.6815°
True anomaly
48.4397°
Mean anomaly
47.5316°
Eccentric anomaly
47.98484°
Mean motion
3.63187 °/min
Orbital period
99.12 mins
BSTAR
0.00063939
Loading maneuver chart data...
Computing Atmospheric mass density...
Loading historical data...
Loading historical data...
Loading historical data...
Loading historical data...
Loading historical data...
Loading historical data...
Loading historical data...

Documentation

Showing up to 5 results
|